Cutler, California
Current Conditions -  °F | °C
As of 2:15 PM on Tuesday 25 Nov 2014 (Local Time) from KVIS Reporting Station
Clear Clear  
Wind Chill: 64°   Ceiling: Unl
Heat Index: 64°   Visibility: 5mi
Dew Point: 46°   Wind: 5mph
Humidity: 52%   Direction: 10°N
Pressure: 30.4"   Gusts: NA
Location:  36.52°N, 119.29°W
Report Text: KVIS 252215Z 01004KT 5SM CLR 18/08 A3040 RMK AO1
Loading
Personal Weather Stations






























Interactive Weather Map New forecast layout! Learn more

10-Day Weather Forecast

Advertisements
Track Severe Weather on mobile